Wind_Speed
46 50 50 48 49 50 51 50 49 49 47 47 45 47 46 44 42 42 42 40 39 40 43 46 47 47 47 47 47 47 47 48 49 49 47 47 47 48 48 47 47 47 46 46
53 50 46 48 50 52 52 51 51 51 49 52 49 47 45 44 43 43 44 43 44 45 47 47 48 49 49 49 50 50 50 50 51 52 51 50 50 49 50 48 48 48 48 49
55 58 60 56 54 55 52 51 50 49 48 50 50 49 44 42 42 43 44 47 49 48 48 49 51 52 52 52 53 53 53 53 53 54 53 53 52 51 51 52 48 48 50 50
61 56 59 53 52 52 50 49 49 48 50 50 48 55 53 49 46 49 46 47 49 51 50 53 54 54 54 54 53 53 54 53 53 54 55 54 52 51 50 48 45 46 49 50
56 54 58 59 57 55 56 55 54 56 56 56 56 55 57 53 49 47 48 49 48 51 53 55 56 56 54 53 52 51 49 50 53 54 53 53 53 51 50 49 46 45 46 49
55 55 53 55 55 55 55 55 53 52 52 58 53 53 57 55 54 50 48 49 51 54 57 58 56 54 53 52 50 49 48 48 50 52 53 52 51 50 49 49 48 46 48 49
51 52 50 50 51 50 49 51 52 55 57 62 57 57 51 51 51 47 50 54 57 58 57 56 54 50 48 46 45 44 45 46 46 46 47 48 48 47 47 47 49 49 49 51
50 49 47 47 47 45 45 49 50 51 52 54 53 54 49 47 48 51 53 56 58 58 57 56 54 48 43 42 42 41 42 41 40 40 41 39 39 39 41 43 44 46 49 51
43 45 44 43 41 42 45 48 44 47 49 53 54 50 49 49 47 50 53 55 57 59 56 50 46 43 40 35 35 37 41 44 43 43 44 44 44 46 46 47 48 47 48 50
43 44 43 42 44 45 45 46 46 47 49 50 52 52 50 51 53 53 54 55 55 55 52 48 43 37 39 40 40 41 42 41 43 46 46 46 46 47 48 48 48 49 50 51
44 46 47 47 47 44 46 47 48 48 50 51 54 52 51 54 55 51 52 51 51 50 46 44 43 41 40 39 43 47 46 41 40 42 39 37 39 39 40 43 46 46 46 47
40 46 51 50 50 51 51 51 51 54 53 52 56 53 56 56 53 51 51 51 49 48 47 46 44 45 38 33 30 28 32 32 32 32 33 36 40 43 43 43 42 42 42 42
40 45 47 50 52 54 52 50 51 50 51 54 55 53 54 50 48 48 49 50 47 45 43 40 41 45 46 44 37 33 37 34 36 37 37 41 43 44 44 45 48 48 47 47
39 44 49 50 49 51 51 49 48 50 54 53 56 53 48 50 47 43 46 47 45 42 41 39 40 45 47 44 40 39 42 45 44 41 43 44 46 47 46 48 49 50 51 49
47 49 49 50 50 50 52 53 53 56 54 56 52 55 50 50 48 45 47 40 37 36 39 41 41 43 43 40 37 38 38 41 48 49 43 41 46 51 54 56 55 54 52 51
48 50 49 55 52 50 50 52 54 56 56 55 53 55 46 43 40 37 32 37 37 36 36 36 34 31 32 35 39 38 40 41 44 50 44 46 50 53 50 50 54 54 56 59
54 46 39 52 42 45 55 56 54 53 52 46 49 44 32 38 42 40 40 43 45 43 42 37 39 37 38 37 39 42 44 48 51 58 51 53 57 53 52 55 54 56 57 57
59 56 52 57 52 52 60 54 53 55 53 49 48 40 32 34 37 37 35 38 41 45 48 45 41 40 39 41 43 46 48 52 54 55 55 54 53 55 55 56 56 56 57 59
62 58 60 59 60 64 62 58 55 53 49 42 43 36 37 37 38 40 41 39 38 40 41 41 40 39 40 40 42 42 47 49 51 52 52 53 53 53 54 55 56 58 58 58
53 45 48 59 57 64 65 58 57 51 54 35 30 25 26 32 33 33 35 39 38 39 41 40 40 42 39 41 47 52 49 49 48 49 50 50 51 53 56 56 56 58 61 66
49 48 51 50 53 60 62 56 37 45 50 48 38 34 34 37 36 34 36 40 39 44 47 46 43 34 46 49 50 49 49 48 47 49 51 52 53 55 56 59 62 66 69 72
44 49 49 53 55 60 47 44 44 43 37 37 46 38 40 40 44 39 35 35 37 36 38 40 39 42 44 45 46 46 46 47 49 51 54 55 57 61 64 68 73 76 79 82
45 40 43 47 45 36 31 34 45 40 44 32 34 31 26 38 39 39 36 32 33 36 38 39 41 43 44 44 44 45 47 50 52 54 56 60 64 68 72 77 80 84 88 92
35 36 38 42 34 41 45 40 33 39 40 37 31 34 39 36 32 31 30 30 34 36 36 38 40 41 41 43 45 48 50 52 54 58 61 65 69 73 78 82 86 90 93 96
30 32 36 40 38 40 37 30 25 28 32 35 30 38 37 39 28 29 29 31 34 36 37 38 40 41 42 44 47 50 52 55 58 62 66 69 73 77 81 85 88 92 95 95
26 30 32 27 26 26 22 13 18 22 30 32 31 28 24 25 29 31 32 32 34 36 38 40 40 42 45 49 51 53 56 59 63 66 70 73 77 80 84 87 91 89 87 80
Wind_Direction
248 251 255 257 256 257 260 262 265 266 267 266 267 266 270 274 276 276 277 277 277 280 282 279 280 287 290 291 292 289 286 285 285 282 279 277 276 277 276 276 277 277 276 275
247 247 253 257 260 262 263 265 268 269 270 270 268 267 271 275 278 278 278 278 278 279 279 281 284 286 287 287 288 287 286 283 279 277 275 274 273 274 275 275 274 273 276 276
257 255 257 260 263 266 267 268 269 269 267 267 268 266 267 273 278 278 277 278 281 281 280 283 285 285 284 285 285 284 282 279 276 275 273 273 274 273 272 273 274 273 272 274
260 262 255 258 259 262 266 265 265 266 266 267 269 274 273 274 274 275 277 277 277 279 281 282 281 282 283 283 283 282 280 278 274 272 272 272 272 271 273 273 273 271 271 271
258 255 255 254 258 262 264 265 266 268 270 272 273 273 274 273 272 275 277 278 280 280 279 281 283 283 285 285 284 282 279 274 273 273 272 272 273 273 274 275 274 272 271 270
250 255 256 258 259 261 263 263 265 267 271 268 270 274 272 276 277 281 284 284 282 282 283 283 285 287 287 286 285 281 278 275 274 272 271 271 272 272 273 273 274 272 270 269
254 254 258 257 257 259 262 264 267 265 263 265 269 270 271 276 279 281 281 281 282 283 285 286 286 287 287 284 280 277 277 276 275 276 276 276 274 275 276 278 276 274 271 268
251 252 254 253 255 258 257 257 261 269 273 273 269 267 271 273 276 279 280 281 284 285 286 287 288 287 283 278 275 273 271 272 275 275 276 276 276 274 274 272 272 273 273 273
248 247 248 251 254 255 257 260 264 265 266 268 272 275 274 275 277 278 280 280 282 286 288 288 287 282 279 267 265 268 272 273 274 273 273 271 274 275 278 275 274 274 272 273
250 253 250 251 251 253 260 263 263 266 268 272 271 270 273 278 276 276 278 280 281 283 286 287 285 279 265 267 266 273 280 278 277 277 278 278 280 281 280 275 273 272 272 271
250 250 254 254 253 257 259 260 263 265 265 270 272 273 275 273 275 279 280 282 282 281 281 281 283 283 282 273 269 271 273 274 277 278 281 284 283 281 280 279 276 277 277 277
250 252 250 252 254 254 255 257 259 262 267 271 272 272 275 278 281 283 281 280 278 277 277 277 278 277 276 279 279 274 269 269 280 280 281 279 281 281 282 281 280 278 278 278
253 253 256 253 254 256 260 266 269 270 270 269 268 273 274 277 277 276 276 276 278 278 277 277 277 274 274 278 275 264 262 268 283 282 281 281 280 279 279 282 279 279 281 280
257 254 256 258 260 260 259 258 260 261 261 268 271 276 279 278 277 273 272 273 274 276 273 276 277 274 272 276 278 271 273 283 283 279 279 279 281 280 280 288 286 284 283 283
256 259 260 262 260 259 261 261 263 264 268 264 275 270 274 272 271 269 268 276 270 273 273 273 273 273 274 277 276 280 275 274 281 278 279 281 282 285 286 281 281 281 281 282
253 255 254 259 261 259 260 264 265 264 266 268 271 271 274 275 269 267 269 264 270 270 274 270 269 273 275 276 276 277 276 278 281 273 274 286 281 274 285 287 282 279 279 282
250 249 250 257 253 256 253 262 263 265 265 267 269 278 266 261 255 255 258 264 265 268 267 274 275 276 279 274 278 279 279 277 280 280 284 283 288 292 291 291 290 287 284 284
252 250 245 249 244 237 262 261 257 253 261 265 272 269 271 268 257 253 260 265 268 268 264 272 276 272 273 273 276 277 278 278 280 283 286 288 289 288 287 286 286 285 285 284
252 247 243 243 246 254 258 260 261 258 258 258 262 256 256 261 255 254 261 269 271 267 264 265 268 270 278 279 266 277 278 279 280 280 281 283 283 283 283 284 285 285 286 285
246 244 247 246 249 253 261 252 255 256 250 248 256 256 265 273 265 267 267 263 261 267 262 263 270 277 279 265 275 282 283 281 281 281 281 281 283 284 285 286 287 288 289 291
243 245 243 241 246 249 258 252 254 249 263 244 252 262 260 266 262 262 265 253 256 260 268 273 272 268 265 270 274 277 278 280 281 281 283 284 284 285 285 286 287 287 288 290
245 245 247 247 250 253 264 264 260 265 251 251 249 259 262 270 263 261 261 257 262 266 268 270 276 273 273 274 276 278 279 281 283 284 286 288 290 290 290 291 291 292 292 293
243 253 256 254 255 262 252 258 256 251 239 252 256 252 254 259 256 250 254 263 269 272 273 273 269 273 275 276 278 281 283 284 286 289 291 292 292 292 293 293 293 293 294 295
244 254 248 253 249 250 248 274 256 243 245 250 261 249 252 261 258 255 261 268 274 274 274 275 275 275 276 279 282 284 286 289 291 292 292 294 295 295 295 294 295 297 299 300
240 230 239 253 249 257 265 253 234 235 245 259 256 248 248 247 260 268 273 274 276 277 276 276 275 276 279 282 286 289 290 291 291 293 295 295 295 296 297 298 301 302 303 303
245 241 242 252 253 263 256 233 223 213 226 234 237 241 251 260 267 272 276 275 274 276 276 277 280 284 287 289 290 290 291 292 293 294 294 295 297 299 301 303 305 305 305 305
Height
5771 5776 5781 5783 5784 5786 5788 5792 5795 5797 5799 5801 5804 5805 5805 5807 5809 5808 5809 5810 5812 5811 5809 5806 5804 5805 5804 5802 5802 5800 5797 5796 5794 5793 5793 5791 5790 5789 5788 5786 5785 5783 5781 5780
5760 5767 5770 5772 5773 5777 5778 5781 5784 5786 5788 5788 5793 5797 5798 5798 5800 5800 5799 5800 5801 5800 5797 5796 5797 5796 5794 5792 5789 5788 5786 5785 5783 5781 5780 5779 5778 5777 5777 5775 5774 5771 5771 5769
5750 5758 5761 5763 5764 5767 5769 5771 5772 5774 5774 5776 5780 5785 5791 5793 5791 5789 5791 5790 5788 5789 5788 5786 5786 5785 5783 5781 5778 5776 5774 5772 5771 5769 5768 5767 5767 5766 5765 5764 5763 5762 5759 5758
5739 5745 5749 5753 5756 5756 5758 5759 5758 5760 5760 5767 5773 5772 5780 5783 5784 5778 5780 5780 5778 5776 5777 5775 5772 5772 5770 5768 5766 5764 5761 5759 5758 5757 5756 5756 5756 5755 5753 5753 5753 5751 5750 5748
5730 5732 5735 5740 5745 5745 5748 5748 5747 5748 5752 5756 5761 5761 5766 5769 5770 5768 5769 5767 5767 5765 5764 5763 5761 5759 5757 5755 5753 5751 5750 5748 5746 5745 5745 5744 5743 5743 5743 5742 5742 5741 5739 5737
5717 5720 5725 5729 5732 5733 5735 5735 5736 5738 5740 5742 5750 5750 5756 5755 5755 5754 5754 5753 5753 5753 5751 5750 5748 5746 5744 5743 5741 5739 5737 5736 5735 5734 5733 5732 5732 5732 5731 5730 5729 5728 5727 5725
5706 5710 5713 5716 5718 5721 5724 5725 5724 5725 5727 5730 5737 5736 5747 5743 5742 5745 5743 5740 5738 5737 5737 5737 5735 5733 5731 5730 5729 5727 5726 5725 5724 5723 5723 5722 5721 5721 5720 5718 5717 5716 5714 5712
5694 5698 5702 5706 5709 5710 5711 5711 5712 5712 5715 5718 5722 5726 5734 5735 5734 5731 5730 5728 5725 5725 5724 5722 5721 5719 5718 5718 5717 5716 5715 5715 5714 5714 5713 5712 5711 5709 5708 5707 5705 5704 5702 5700
5682 5684 5690 5695 5698 5699 5700 5699 5705 5703 5703 5704 5709 5719 5722 5720 5723 5720 5718 5718 5715 5710 5710 5710 5709 5708 5707 5706 5706 5706 5705 5704 5703 5703 5702 5701 5700 5698 5697 5695 5694 5692 5690 5689
5670 5673 5678 5683 5685 5687 5690 5691 5691 5692 5692 5693 5696 5703 5710 5709 5708 5709 5708 5707 5706 5702 5699 5698 5698 5698 5697 5696 5696 5695 5694 5692 5691 5691 5689 5688 5687 5686 5684 5683 5681 5679 5678 5676
5658 5661 5666 5669 5673 5677 5677 5676 5678 5681 5679 5679 5686 5694 5697 5694 5694 5698 5697 5695 5694 5691 5690 5688 5688 5686 5686 5687 5686 5684 5683 5681 5680 5678 5677 5676 5675 5674 5672 5671 5670 5668 5666 5664
5649 5647 5649 5655 5658 5660 5662 5664 5664 5664 5670 5673 5672 5683 5680 5682 5685 5683 5682 5680 5680 5680 5679 5678 5678 5677 5676 5675 5674 5673 5671 5670 5669 5668 5668 5667 5665 5664 5662 5660 5658 5656 5654 5652
5637 5635 5639 5644 5647 5648 5652 5655 5656 5656 5656 5662 5654 5671 5670 5674 5672 5669 5668 5667 5667 5668 5668 5669 5669 5666 5665 5665 5664 5663 5662 5661 5660 5660 5658 5657 5655 5653 5651 5649 5648 5646 5644 5641
5621 5622 5627 5634 5637 5636 5639 5641 5643 5643 5641 5648 5645 5653 5662 5659 5658 5657 5657 5657 5657 5658 5658 5659 5659 5657 5655 5654 5653 5652 5652 5651 5650 5649 5648 5645 5644 5642 5640 5638 5635 5632 5630 5628
5609 5610 5614 5620 5622 5621 5625 5628 5632 5629 5635 5628 5643 5637 5649 5645 5644 5645 5643 5647 5647 5648 5648 5648 5647 5646 5645 5644 5643 5641 5640 5638 5638 5636 5636 5633 5631 5629 5627 5624 5621 5619 5617 5614
5599 5600 5601 5603 5608 5608 5611 5615 5615 5614 5619 5617 5624 5625 5632 5633 5633 5633 5635 5635 5637 5637 5637 5637 5637 5635 5634 5633 5632 5630 5628 5626 5624 5622 5622 5620 5619 5616 5613 5611 5608 5605 5602 5599
5585 5587 5589 5590 5596 5593 5591 5606 5603 5604 5607 5608 5606 5620 5618 5619 5620 5621 5623 5623 5625 5626 5627 5627 5626 5625 5624 5622 5621 5619 5618 5616 5613 5611 5609 5608 5605 5602 5599 5595 5592 5590 5585 5583
5573 5575 5576 5575 5577 5574 5584 5592 5593 5589 5595 5598 5600 5606 5607 5608 5608 5609 5611 5612 5614 5615 5615 5615 5615 5614 5614 5613 5611 5608 5606 5604 5601 5598 5596 5593 5591 5588 5585 5581 5577 5574 5570 5566
5557 5561 5560 5560 5562 5564 5574 5580 5582 5581 5587 5591 5588 5593 5592 5596 5598 5599 5600 5603 5603 5604 5604 5604 5604 5604 5604 5600 5598 5596 5594 5591 5588 5586 5583 5580 5577 5573 5570 5566 5562 5559 5555 5550
5546 5547 5548 5550 5547 5546 5564 5570 5571 5570 5568 5588 5581 5582 5585 5585 5583 5591 5592 5592 5592 5593 5592 5592 5593 5592 5592 5588 5585 5583 5580 5577 5574 5571 5568 5565 5562 5559 5555 5551 5547 5542 5538 5534
5535 5536 5535 5537 5534 5533 5553 5557 5558 5552 5564 5572 5572 5573 5573 5574 5578 5580 5579 5580 5581 5582 5582 5581 5581 5581 5579 5576 5573 5570 5567 5564 5561 5557 5554 5551 5548 5544 5539 5534 5529 5524 5519 5513
5523 5525 5526 5527 5525 5524 5545 5544 5544 5552 5555 5558 5558 5560 5562 5565 5568 5569 5569 5569 5570 5570 5570 5570 5568 5567 5565 5562 5559 5557 5554 5551 5547 5544 5540 5536 5532 5527 5522 5516 5509 5503 5497 5490
5509 5514 5518 5520 5521 5528 5528 5531 5532 5535 5540 5545 5547 5551 5553 5553 5555 5557 5556 5557 5559 5559 5559 5558 5557 5554 5552 5549 5547 5544 5541 5538 5534 5530 5525 5520 5515 5509 5503 5496 5488 5481 5474 5466
5502 5506 5507 5511 5516 5516 5516 5517 5519 5524 5530 5533 5537 5540 5543 5545 5545 5546 5548 5547 5548 5548 5547 5546 5544 5542 5540 5538 5535 5532 5529 5525 5520 5515 5510 5504 5497 5489 5482 5474 5466 5458 5449 5439
5496 5499 5501 5503 5507 5507 5509 5510 5512 5517 5523 5526 5527 5530 5531 5535 5536 5537 5537 5536 5537 5536 5536 5535 5533 5531 5528 5526 5523 5519 5514 5510 5505 5499 5493 5485 5478 5470 5460 5452 5444 5434 5424 5414
5490 5494 5495 5498 5500 5501 5502 5501 5505 5510 5514 5517 5519 5523 5525 5526 5528 5528 5527 5527 5526 5526 5526 5524 5522 5520 5516 5513 5509 5504 5499 5494 5488 5481 5474 5467 5459 5450 5442 5431 5416 5409 5400 5391